Location: Lafig�re
(44.4503°N, 4.0357°E)
Time: 17:07:16
(UTC+00:00)

Cosmos 2278 Rocket - Pass Details

Date: 24 September 2020
Orbit: 841 x 845 km, 71.0° (Epoch: 20 October)

Event Time Altitude Azimuth Distance (km) Brightness Sun altitude
Rises 21:26:46 0° 241° (WSW) 3,389 5.5 -38.0°
Enters shadow 21:28:38 - 249° (WSW) 2,764 5.1 -38.2°
Exits shadow 21:33:00 24° 289° (WNW) 1,695 4.1 -38.7°
Maximum altitude 21:34:15 26° 310° (NW) 1,620 4.1 -38.8°
Drops below altitude 10° 21:38:55 10° 5° (N) 2,470 5.0 -39.4°
Sets 21:41:49 0° 18° (NNE) 3,409 5.7 -39.7°
